Time,TemperatureF,DewpointF,PressureIn,WindDirection,WindDirectionDegrees,WindSpeedMPH,WindSpeedGustMPH,Humidity,HourlyPrecipIn,Conditions,Clouds,dailyrainin,SoftwareType,DateUTC
2013-02-15 00:14:00,25.0,21.0,29.91,NNE,13,0.0,-999.0,85,-99.99,,,0.00,weatherlink.com 1.10,2013-02-15 05:14:00,
2013-02-15 00:29:00,25.4,22.0,29.90,NNE,13,0.0,-999.0,85,-99.99,,,0.00,weatherlink.com 1.10,2013-02-15 05:29:00,
2013-02-15 00:44:00,25.7,22.0,29.90,NNE,13,0.0,-999.0,85,-99.99,,,0.00,weatherlink.com 1.10,2013-02-15 05:44:00,
2013-02-15 00:59:00,25.8,22.0,29.90,NNE,13,0.0,-999.0,85,-99.99,,,0.00,weatherlink.com 1.10,2013-02-15 05:59:00,
2013-02-15 01:14:00,25.8,22.0,29.90,NNE,13,0.0,-999.0,86,-99.99,,,0.00,weatherlink.com 1.10,2013-02-15 06:14:00,
2013-02-15 01:29:00,25.8,23.0,29.89,NNE,13,0.0,-999.0,87,-99.99,,,0.00,weatherlink.com 1.10,2013-02-15 06:29:00,
2013-02-15 01:44:00,25.9,23.0,29.89,NNE,13,0.0,-999.0,88,-99.99,,,0.00,weatherlink.com 1.10,2013-02-15 06:44:00,
2013-02-15 01:59:00,25.8,23.0,29.89,NNE,13,0.0,-999.0,88,-99.99,,,0.00,weatherlink.com 1.10,2013-02-15 06:59:00,
2013-02-15 02:14:00,25.7,23.0,29.89,NNE,13,0.0,-999.0,88,-99.99,,,0.00,weatherlink.com 1.10,2013-02-15 07:14:00,
2013-02-15 02:29:00,25.4,22.0,29.89,NNE,13,0.0,-999.0,88,-99.99,,,0.00,weatherlink.com 1.10,2013-02-15 07:29:00,
2013-02-15 02:44:00,25.3,23.0,29.89,NNE,13,0.0,-999.0,89,-99.99,,,0.00,weatherlink.com 1.10,2013-02-15 07:44:00,
2013-02-15 02:59:00,25.0,22.0,29.88,NNE,13,0.0,-999.0,88,-99.99,,,0.00,weatherlink.com 1.10,2013-02-15 07:59:00,
2013-02-15 03:14:00,24.5,22.0,29.88,NNE,13,0.0,-999.0,88,-99.99,,,0.00,weatherlink.com 1.10,2013-02-15 08:14:00,
2013-02-15 03:29:00,24.3,21.0,29.89,NNE,13,0.0,-999.0,88,-99.99,,,0.00,weatherlink.com 1.10,2013-02-15 08:29:00,
2013-02-15 03:44:00,24.0,21.0,29.88,NNE,13,0.0,-999.0,89,-99.99,,,0.00,weatherlink.com 1.10,2013-02-15 08:44:00,
2013-02-15 03:59:00,23.8,21.0,29.89,NNE,13,0.0,-999.0,90,-99.99,,,0.00,weatherlink.com 1.10,2013-02-15 08:59:00,
2013-02-15 04:14:00,23.5,21.0,29.88,NNE,13,0.0,-999.0,90,-99.99,,,0.00,weatherlink.com 1.10,2013-02-15 09:14:00,
2013-02-15 04:29:00,23.1,21.0,29.89,NNE,13,0.0,-999.0,91,-99.99,,,0.00,weatherlink.com 1.10,2013-02-15 09:29:00,
2013-02-15 04:44:00,22.9,21.0,29.88,NNE,13,0.0,-999.0,91,-99.99,,,0.00,weatherlink.com 1.10,2013-02-15 09:44:00,
2013-02-15 04:59:00,22.9,21.0,29.88,NNE,13,0.0,-999.0,92,-99.99,,,0.00,weatherlink.com 1.10,2013-02-15 09:59:00,
2013-02-15 05:14:00,23.4,22.0,29.88,NNE,13,0.0,-999.0,92,-99.99,,,0.00,weatherlink.com 1.10,2013-02-15 10:14:00,
2013-02-15 05:29:00,23.1,21.0,29.88,NNE,13,0.0,-999.0,91,-99.99,,,0.00,weatherlink.com 1.10,2013-02-15 10:29:00,
2013-02-15 05:44:00,22.8,21.0,29.88,NNE,13,0.0,-999.0,92,-99.99,,,0.00,weatherlink.com 1.10,2013-02-15 10:44:00,
2013-02-15 05:59:00,22.6,21.0,29.88,NNE,13,0.0,-999.0,92,-99.99,,,0.00,weatherlink.com 1.10,2013-02-15 10:59:00,
2013-02-15 06:14:00,23.0,21.0,29.88,NNE,13,0.0,-999.0,93,-99.99,,,0.00,weatherlink.com 1.10,2013-02-15 11:14:00,
2013-02-15 06:29:00,23.2,21.0,29.88,NNE,13,0.0,-999.0,92,-99.99,,,0.00,weatherlink.com 1.10,2013-02-15 11:29:00,
2013-02-15 06:44:00,23.1,21.0,29.88,NNE,13,0.0,-999.0,92,-99.99,,,0.00,weatherlink.com 1.10,2013-02-15 11:44:00,
2013-02-15 06:59:00,23.1,21.0,29.88,NNE,13,0.0,-999.0,92,-99.99,,,0.00,weatherlink.com 1.10,2013-02-15 11:59:00,
2013-02-15 07:14:00,23.1,21.0,29.88,NNE,13,1.0,-999.0,92,-99.99,,,0.00,weatherlink.com 1.10,2013-02-15 12:14:00,
2013-02-15 07:29:00,23.1,21.0,29.88,NNE,13,0.0,-999.0,93,-99.99,,,0.00,weatherlink.com 1.10,2013-02-15 12:29:00,
2013-02-15 07:44:00,24.8,23.0,29.88,NNE,13,1.0,-999.0,94,-99.99,,,0.00,weatherlink.com 1.10,2013-02-15 12:44:00,
2013-02-15 07:59:00,26.7,25.0,29.89,NNE,13,0.0,-999.0,94,-99.99,,,0.00,weatherlink.com 1.10,2013-02-15 12:59:00,
2013-02-15 08:14:00,27.6,26.0,29.88,NNE,13,0.0,-999.0,92,-99.99,,,0.00,weatherlink.com 1.10,2013-02-15 13:14:00,
2013-02-15 08:29:00,29.0,27.0,29.89,NNE,13,3.0,-999.0,92,-99.99,,,0.00,weatherlink.com 1.10,2013-02-15 13:29:00,
2013-02-15 08:44:00,30.8,29.0,29.89,NNE,12,0.0,-999.0,91,-99.99,,,0.00,weatherlink.com 1.10,2013-02-15 13:44:00,
2013-02-15 08:59:00,31.1,28.0,29.89,NNE,12,0.0,-999.0,89,-99.99,,,0.00,weatherlink.com 1.10,2013-02-15 13:59:00,
2013-02-15 09:14:00,31.5,28.0,29.89,NNE,12,0.0,-999.0,87,-99.99,,,0.00,weatherlink.com 1.10,2013-02-15 14:14:00,
2013-02-15 09:29:00,31.4,28.0,29.89,NNE,12,0.0,-999.0,86,-99.99,,,0.00,weatherlink.com 1.10,2013-02-15 14:29:00,
2013-02-15 09:44:00,31.6,28.0,29.89,NNE,12,1.0,-999.0,86,-99.99,,,0.00,weatherlink.com 1.10,2013-02-15 14:44:00,
2013-02-15 09:59:00,32.5,29.0,29.88,NNE,12,0.0,-999.0,85,-99.99,,,0.00,weatherlink.com 1.10,2013-02-15 14:59:00,
2013-02-15 10:14:00,34.3,30.0,29.88,NNE,12,0.0,-999.0,85,-99.99,,,0.00,weatherlink.com 1.10,2013-02-15 15:14:00,
2013-02-15 10:29:00,36.6,33.0,29.88,SW,236,5.0,-999.0,85,-99.99,,,0.00,weatherlink.com 1.10,2013-02-15 15:29:00,
2013-02-15 10:44:00,38.7,34.0,29.88,SW,232,7.0,-999.0,83,-99.99,,,0.00,weatherlink.com 1.10,2013-02-15 15:44:00,
2013-02-15 10:59:00,39.4,34.0,29.88,WSW,250,10.0,-999.0,81,-99.99,,,0.00,weatherlink.com 1.10,2013-02-15 15:59:00,
2013-02-15 11:14:00,39.3,34.0,29.87,SW,234,7.0,-999.0,80,-99.99,,,0.00,weatherlink.com 1.10,2013-02-15 16:14:00,
2013-02-15 11:29:00,40.1,34.0,29.86,SW,229,6.0,-999.0,78,-99.99,,,0.00,weatherlink.com 1.10,2013-02-15 16:29:00,
2013-02-15 11:44:00,40.1,34.0,29.86,SSW,207,4.0,-999.0,78,-99.99,,,0.00,weatherlink.com 1.10,2013-02-15 16:44:00,
2013-02-15 11:59:00,40.5,34.0,29.85,West,267,10.0,-999.0,77,-99.99,,,0.00,weatherlink.com 1.10,2013-02-15 16:59:00,
2013-02-15 12:14:00,41.0,34.0,29.84,WSW,256,19.0,-999.0,75,-99.99,,,0.00,weatherlink.com 1.10,2013-02-15 17:14:00,
2013-02-15 12:29:00,41.6,34.0,29.84,WSW,240,14.0,-999.0,75,-99.99,,,0.00,weatherlink.com 1.10,2013-02-15 17:29:00,
2013-02-15 12:44:00,42.1,35.0,29.84,SW,225,10.0,-999.0,76,-99.99,,,0.00,weatherlink.com 1.10,2013-02-15 17:44:00,
2013-02-15 12:59:00,42.2,35.0,29.84,SW,223,7.0,-999.0,76,-99.99,,,0.00,weatherlink.com 1.10,2013-02-15 17:59:00,
2013-02-15 13:14:00,42.2,35.0,29.83,West,267,6.0,-999.0,75,-99.99,,,0.00,weatherlink.com 1.10,2013-02-15 18:14:00,
2013-02-15 13:29:00,43.0,35.0,29.82,SW,233,8.0,-999.0,73,-99.99,,,0.00,weatherlink.com 1.10,2013-02-15 18:29:00,
2013-02-15 13:44:00,42.8,35.0,29.83,SW,234,10.0,-999.0,73,-99.99,,,0.00,weatherlink.com 1.10,2013-02-15 18:44:00,
2013-02-15 13:59:00,43.2,35.0,29.83,WSW,242,13.0,-999.0,72,-99.99,,,0.00,weatherlink.com 1.10,2013-02-15 18:59:00,
2013-02-15 14:14:00,43.3,35.0,29.83,WSW,246,17.0,-999.0,72,-99.99,,,0.00,weatherlink.com 1.10,2013-02-15 19:14:00,
2013-02-15 14:29:00,43.8,35.0,29.83,WSW,241,3.0,-999.0,72,-99.99,,,0.00,weatherlink.com 1.10,2013-02-15 19:29:00,
2013-02-15 14:44:00,43.9,36.0,29.83,WSW,240,5.0,-999.0,73,-99.99,,,0.00,weatherlink.com 1.10,2013-02-15 19:44:00,
2013-02-15 14:59:00,44.2,36.0,29.84,WSW,252,15.0,-999.0,72,-99.99,,,0.00,weatherlink.com 1.10,2013-02-15 19:59:00,
2013-02-15 15:14:00,44.1,36.0,29.83,SW,234,8.0,-999.0,73,-99.99,,,0.00,weatherlink.com 1.10,2013-02-15 20:14:00,
2013-02-15 15:29:00,44.2,36.0,29.83,WSW,254,4.0,-999.0,74,-99.99,,,0.00,weatherlink.com 1.10,2013-02-15 20:29:00,
2013-02-15 15:44:00,43.7,37.0,29.83,WSW,250,10.0,-999.0,76,-99.99,,,0.00,weatherlink.com 1.10,2013-02-15 20:44:00,
2013-02-15 15:59:00,43.5,37.0,29.82,SW,232,2.0,-999.0,77,-99.99,,,0.00,weatherlink.com 1.10,2013-02-15 20:59:00,
2013-02-15 16:14:00,43.2,36.0,29.82,SSW,197,4.0,-999.0,77,-99.99,,,0.00,weatherlink.com 1.10,2013-02-15 21:14:00,
2013-02-15 16:29:00,42.7,36.0,29.82,WSW,243,5.0,-999.0,78,-99.99,,,0.00,weatherlink.com 1.10,2013-02-15 21:29:00,
2013-02-15 16:44:00,42.4,37.0,29.82,SW,236,0.0,-999.0,80,-99.99,,,0.00,weatherlink.com 1.10,2013-02-15 21:44:00,
2013-02-15 16:59:00,41.8,36.0,29.83,SW,223,3.0,-999.0,81,-99.99,,,0.00,weatherlink.com 1.10,2013-02-15 21:59:00,
2013-02-15 17:14:00,41.2,36.0,29.83,WSW,239,3.0,-999.0,82,-99.99,,,0.00,weatherlink.com 1.10,2013-02-15 22:14:00,
2013-02-15 17:29:00,40.8,36.0,29.82,SW,220,2.0,-999.0,83,-99.99,,,0.00,weatherlink.com 1.10,2013-02-15 22:29:00,
2013-02-15 17:44:00,40.4,36.0,29.82,SW,222,2.0,-999.0,85,-99.99,,,0.00,weatherlink.com 1.10,2013-02-15 22:44:00,
2013-02-15 17:59:00,39.8,36.0,29.83,SW,222,0.0,-999.0,85,-99.99,,,0.00,weatherlink.com 1.10,2013-02-15 22:59:00,
2013-02-15 18:14:00,38.8,35.0,29.82,SW,222,0.0,-999.0,86,-99.99,,,0.00,weatherlink.com 1.10,2013-02-15 23:14:00,
2013-02-15 18:29:00,38.2,35.0,29.82,SW,221,0.0,-999.0,88,-99.99,,,0.00,weatherlink.com 1.10,2013-02-15 23:29:00,
2013-02-15 18:44:00,37.6,35.0,29.82,SW,221,1.0,-999.0,89,-99.99,,,0.00,weatherlink.com 1.10,2013-02-15 23:44:00,
2013-02-15 18:59:00,37.7,35.0,29.82,SW,221,2.0,-999.0,91,-99.99,,,0.00,weatherlink.com 1.10,2013-02-15 23:59:00,
2013-02-15 19:14:00,38.4,36.0,29.82,SW,221,3.0,-999.0,92,-99.99,,,0.00,weatherlink.com 1.10,2013-02-16 00:14:00,
2013-02-15 19:29:00,38.6,36.0,29.83,SW,221,0.0,-999.0,91,-99.99,,,0.00,weatherlink.com 1.10,2013-02-16 00:29:00,
2013-02-15 19:44:00,37.8,35.0,29.83,SW,221,0.0,-999.0,90,-99.99,,,0.00,weatherlink.com 1.10,2013-02-16 00:44:00,
2013-02-15 19:59:00,37.3,35.0,29.83,SW,221,0.0,-999.0,91,-99.99,,,0.00,weatherlink.com 1.10,2013-02-16 00:59:00,
2013-02-15 20:14:00,37.3,35.0,29.84,SW,221,0.0,-999.0,92,-99.99,,,0.00,weatherlink.com 1.10,2013-02-16 01:14:00,
2013-02-15 20:29:00,37.4,36.0,29.84,SW,221,1.0,-999.0,93,-99.99,,,0.00,weatherlink.com 1.10,2013-02-16 01:29:00,
2013-02-15 20:44:00,37.2,35.0,29.84,SW,221,0.0,-999.0,93,-99.99,,,0.00,weatherlink.com 1.10,2013-02-16 01:44:00,
2013-02-15 20:59:00,36.7,35.0,29.84,SW,221,0.0,-999.0,92,-99.99,,,0.00,weatherlink.com 1.10,2013-02-16 01:59:00,
2013-02-15 21:14:00,36.3,35.0,29.84,SW,221,0.0,-999.0,93,-99.99,,,0.00,weatherlink.com 1.10,2013-02-16 02:14:00,
2013-02-15 21:29:00,36.0,34.0,29.84,SW,221,0.0,-999.0,93,-99.99,,,0.00,weatherlink.com 1.10,2013-02-16 02:29:00,
2013-02-15 21:44:00,34.8,33.0,29.84,SW,221,0.0,-999.0,93,-99.99,,,0.00,weatherlink.com 1.10,2013-02-16 02:44:00,
2013-02-15 21:59:00,34.3,33.0,29.84,SW,221,0.0,-999.0,93,-99.99,,,0.00,weatherlink.com 1.10,2013-02-16 02:59:00,
2013-02-15 22:14:00,33.5,32.0,29.84,SW,221,0.0,-999.0,92,-99.99,,,0.00,weatherlink.com 1.10,2013-02-16 03:14:00,
2013-02-15 22:29:00,32.8,31.0,29.84,WSW,252,2.0,-999.0,94,-99.99,,,0.00,weatherlink.com 1.10,2013-02-16 03:29:00,
2013-02-15 22:44:00,31.5,30.0,29.85,WSW,253,0.0,-999.0,93,-99.99,,,0.00,weatherlink.com 1.10,2013-02-16 03:44:00,
2013-02-15 22:59:00,31.6,30.0,29.85,WSW,253,0.0,-999.0,94,-99.99,,,0.00,weatherlink.com 1.10,2013-02-16 03:59:00,
2013-02-15 23:14:00,32.4,31.0,29.85,WSW,253,0.0,-999.0,95,-99.99,,,0.00,weatherlink.com 1.10,2013-02-16 04:14:00,
2013-02-15 23:29:00,32.8,32.0,29.84,WSW,253,0.0,-999.0,95,-99.99,,,0.00,weatherlink.com 1.10,2013-02-16 04:29:00,
2013-02-15 23:44:00,32.6,31.0,29.85,WSW,252,0.0,-999.0,95,-99.99,,,0.00,weatherlink.com 1.10,2013-02-16 04:44:00,
2013-02-15 23:59:00,32.0,31.0,29.84,WSW,253,0.0,-999.0,95,-99.99,,,0.00,weatherlink.com 1.10,2013-02-16 04:59:00,